Location: Fort Wayne
(41.1310°N, 85.1290°W)
Time: 14:39:42
(UTC-04:00)

Helios 1B - Visible Passes

Search period start: 30 April 2017 00:00
Search period end: 10 May 2017 00:00
Orbit: 620 x 624 km, 98.1° (Epoch: 28 April)

Date Brightness Start Highest point End Pass type
(mag) Time Alt. Az. Time Alt. Az. Time Alt. Az.
30 Apr 6.8 01:48:21 24° N 01:48:21 24° N 01:50:06 10° N visible
01 May 6.7 02:06:23 23° NNW 02:06:23 23° NNW 02:08:05 10° NNW visible
02 May 7.2 00:47:13 13° NE 00:47:13 13° NE 00:48:21 10° NNE visible
02 May 6.8 02:24:26 21° NNW 02:24:26 21° NNW 02:25:56 10° NNW visible
03 May 6.9 01:05:16 18° NE 01:05:16 18° NE 01:07:01 10° NNE visible
03 May 6.9 02:42:28 17° NW 02:42:28 17° NW 02:43:37 10° NNW visible
04 May 6.7 01:23:18 23° NNE 01:23:18 23° NNE 01:25:22 10° N visible
04 May 7.1 03:00:30 13° NW 03:00:30 13° NW 03:01:04 10° NW visible
05 May 6.5 01:41:20 28° NNE 01:41:20 28° NNE 01:43:32 10° N visible
06 May 6.4 01:59:23 29° N 01:59:23 29° N 02:01:34 10° N visible
07 May 7.2 00:40:13 12° NE 00:40:13 12° NE 00:41:19 10° NE visible
07 May 6.4 02:17:25 27° NNW 02:17:25 27° NNW 02:19:28 10° NNW visible
08 May 6.9 00:58:16 17° NE 00:58:16 17° NE 01:00:15 10° NNE visible
08 May 6.6 02:35:27 22° NW 02:35:27 22° NW 02:37:12 10° NNW visible
09 May 6.6 01:16:18 23° NE 01:16:18 23° NE 01:18:42 10° N visible
09 May 6.8 02:53:30 17° NW 02:53:30 17° NW 02:54:46 10° NW visible
